Hourly Weather Dziaduszyce

Today, 18 May, Tuesday

Time Temperature Precipitation Wind Pressure Humidity
00:00 +10°C° 0.6 mm 4 mps 733 mmHg 95%
01:00 +9°C° 0.6 mm 5 mps 733 mmHg 95%
02:00 +8°C° 1.5 mm 5 mps 733 mmHg 95%
03:00 +8°C° 1.5 mm 5 mps 733 mmHg 95%
04:00 +8°C° 1.5 mm 4 mps 733 mmHg 95%
05:00 +8°C° 1.3 mm 5 mps 734 mmHg 96%
06:00 +8°C° 1.3 mm 5 mps 734 mmHg 96%
07:00 +8°C° 1.3 mm 5 mps 735 mmHg 96%
08:00 +8°C° 0.4 mm 5 mps 735 mmHg 95%
09:00 +9°C° 0.4 mm 5 mps 735 mmHg 95%
10:00 +9°C° 0.4 mm 6 mps 735 mmHg 94%
11:00 +10°C° 0.2 mm 6 mps 736 mmHg 92%
12:00 +10°C° 0.2 mm 6 mps 736 mmHg 89%
13:00 +11°C° 0.2 mm 6 mps 736 mmHg 87%
14:00 +11°C° 0.3 mm 6 mps 736 mmHg 87%
15:00 +11°C° 0.3 mm 6 mps 736 mmHg 86%
16:00 +13°C° 0.3 mm 6 mps 736 mmHg 86%
17:00 +11°C° 0 mm 6 mps 737 mmHg 87%
18:00 +10°C° 0 mm 5 mps 737 mmHg 87%
19:00 +10°C° 0 mm 5 mps 737 mmHg 88%
20:00 +10°C° 0 mm 4 mps 737 mmHg 89%
21:00 +10°C° 0 mm 4 mps 737 mmHg 90%
22:00 +8°C° 0 mm 4 mps 737 mmHg 92%
23:00 +8°C° 0 mm 4 mps 738 mmHg 92%

Tomorrow, 19 May, Wednesday

Time Temperature Precipitation Wind Pressure Humidity
00:00 +7°C° 0 mm 4 mps 738 mmHg 93%
01:00 +7°C° 0 mm 4 mps 738 mmHg 94%
02:00 +6°C° 0 mm 4 mps 738 mmHg 94%
03:00 +6°C° 0 mm 4 mps 738 mmHg 94%
04:00 +6°C° 0 mm 4 mps 738 mmHg 95%
05:00 +7°C° 0 mm 4 mps 739 mmHg 91%
06:00 +8°C° 0 mm 4 mps 739 mmHg 88%
07:00 +10°C° 0 mm 5 mps 739 mmHg 84%
08:00 +12°C° 0.1 mm 5 mps 739 mmHg 79%
09:00 +13°C° 0.1 mm 4 mps 739 mmHg 74%
10:00 +14°C° 0.1 mm 4 mps 739 mmHg 69%
11:00 +15°C° 0.1 mm 4 mps 739 mmHg 66%
12:00 +15°C° 0.1 mm 4 mps 739 mmHg 62%
13:00 +17°C° 0.1 mm 4 mps 738 mmHg 58%
14:00 +17°C° 0.1 mm 4 mps 738 mmHg 61%
15:00 +15°C° 0.1 mm 4 mps 738 mmHg 64%
16:00 +15°C° 0.1 mm 5 mps 738 mmHg 68%
17:00 +14°C° 0.2 mm 4 mps 738 mmHg 74%
18:00 +12°C° 0.2 mm 4 mps 739 mmHg 80%
19:00 +11°C° 0.2 mm 3 mps 739 mmHg 86%
20:00 +10°C° 0 mm 3 mps 739 mmHg 88%
21:00 +10°C° 0 mm 3 mps 739 mmHg 90%
22:00 +9°C° 0 mm 3 mps 739 mmHg 92%
23:00 +9°C° 0 mm 3 mps 739 mmHg 93%

Day after tomorrow, 20 May, Thursday

Time Temperature Precipitation Wind Pressure Humidity
00:00 +9°C° 0 mm 3 mps 739 mmHg 94%
01:00 +8°C° 0 mm 3 mps 739 mmHg 94%
02:00 +8°C° 0 mm 3 mps 739 mmHg 94%
03:00 +8°C° 0 mm 3 mps 739 mmHg 94%
04:00 +8°C° 0 mm 3 mps 740 mmHg 95%
05:00 +8°C° 0.1 mm 4 mps 740 mmHg 90%
06:00 +10°C° 0.1 mm 4 mps 740 mmHg 85%
07:00 +9°C° 0.1 mm 5 mps 741 mmHg 80%
08:00 +10°C° 0 mm 5 mps 741 mmHg 76%
09:00 +12°C° 0 mm 5 mps 741 mmHg 71%
10:00 +13°C° 0 mm 5 mps 741 mmHg 66%
11:00 +13°C° 0 mm 6 mps 741 mmHg 63%
12:00 +14°C° 0 mm 6 mps 741 mmHg 59%
13:00 +14°C° 0 mm 6 mps 742 mmHg 56%
14:00 +14°C° 0 mm 6 mps 742 mmHg 59%
15:00 +14°C° 0 mm 5 mps 742 mmHg 61%
16:00 +14°C° 0 mm 5 mps 742 mmHg 64%
17:00 +13°C° 0 mm 4 mps 742 mmHg 68%
18:00 +12°C° 0 mm 4 mps 742 mmHg 72%
19:00 +11°C° 0 mm 3 mps 742 mmHg 76%
20:00 +10°C° 0 mm 3 mps 743 mmHg 80%
21:00 +9°C° 0 mm 3 mps 743 mmHg 84%
22:00 +8°C° 0 mm 3 mps 744 mmHg 88%
23:00 +8°C° 0 mm 3 mps 744 mmHg 90%

21 May, Friday

Time Temperature Precipitation Wind Pressure Humidity
00:00 +8°C° 0 mm 3 mps 744 mmHg 93%
01:00 +7°C° 0 mm 3 mps 744 mmHg 95%
02:00 +7°C° 0 mm 3 mps 744 mmHg 95%
03:00 +5°C° 0 mm 3 mps 744 mmHg 96%
04:00 +6°C° 0 mm 2 mps 745 mmHg 96%
05:00 +7°C° 0 mm 2 mps 745 mmHg 91%
06:00 +9°C° 0 mm 2 mps 745 mmHg 86%
07:00 +12°C° 0 mm 2 mps 745 mmHg 81%
08:00 +13°C° 0.1 mm 2 mps 745 mmHg 75%
09:00 +14°C° 0.1 mm 1 mps 745 mmHg 68%
10:00 +15°C° 0.1 mm 1 mps 745 mmHg 62%
11:00 +16°C° 0.1 mm 1 mps 744 mmHg 59%
12:00 +18°C° 0.1 mm 1 mps 744 mmHg 56%
13:00 +18°C° 0.1 mm 1 mps 744 mmHg 53%
14:00 +18°C° 0 mm 1 mps 743 mmHg 55%
15:00 +17°C° 0 mm 2 mps 743 mmHg 57%
16:00 +17°C° 0 mm 2 mps 743 mmHg 59%
17:00 +16°C° 0 mm 2 mps 742 mmHg 65%
18:00 +13°C° 0 mm 3 mps 742 mmHg 72%
19:00 +12°C° 0 mm 3 mps 742 mmHg 79%
20:00 +11°C° 0 mm 3 mps 742 mmHg 81%
21:00 +10°C° 0 mm 3 mps 742 mmHg 82%
22:00 +10°C° 0 mm 3 mps 742 mmHg 83%
23:00 +9°C° 0 mm 3 mps 741 mmHg 84%

22 May, Saturday

Time Temperature Precipitation Wind Pressure Humidity
00:00 +9°C° 0 mm 2 mps 741 mmHg 85%
01:00 +8°C° 0 mm 2 mps 741 mmHg 86%
02:00 +8°C° 0 mm 2 mps 740 mmHg 86%
03:00 +8°C° 0 mm 2 mps 740 mmHg 86%
04:00 +8°C° 0 mm 2 mps 740 mmHg 86%
05:00 +10°C° 0 mm 2 mps 740 mmHg 82%
06:00 +11°C° 0 mm 3 mps 740 mmHg 77%
07:00 +13°C° 0 mm 3 mps 739 mmHg 73%
08:00 +16°C° 0 mm 3 mps 740 mmHg 68%
09:00 +17°C° 0 mm 3 mps 740 mmHg 63%
10:00 +19°C° 0 mm 2 mps 740 mmHg 58%
11:00 +20°C° 0 mm 2 mps 739 mmHg 56%
12:00 +20°C° 0 mm 2 mps 739 mmHg 54%
13:00 +21°C° 0 mm 2 mps 739 mmHg 51%
14:00 +20°C° 0.1 mm 2 mps 738 mmHg 57%
15:00 +20°C° 0.1 mm 2 mps 738 mmHg 62%
16:00 +20°C° 0.1 mm 1 mps 738 mmHg 67%
17:00 +19°C° 0.5 mm 1 mps 738 mmHg 75%
18:00 +16°C° 0.5 mm 1 mps 738 mmHg 83%
19:00 +14°C° 0.5 mm 2 mps 738 mmHg 91%
20:00 +14°C° 0.4 mm 2 mps 739 mmHg 91%
21:00 +12°C° 0.4 mm 3 mps 739 mmHg 92%
22:00 +12°C° 0.4 mm 4 mps 739 mmHg 93%
23:00 +11°C° 0.4 mm 4 mps 740 mmHg 93%

23 May, Sunday

Time Temperature Precipitation Wind Pressure Humidity
00:00 +10°C° 0.4 mm 4 mps 740 mmHg 92%
01:00 +10°C° 0.4 mm 3 mps 740 mmHg 92%
02:00 +10°C° 0 mm 3 mps 740 mmHg 92%
03:00 +9°C° 0 mm 3 mps 740 mmHg 92%
04:00 +9°C° 0 mm 3 mps 740 mmHg 93%
05:00 +10°C° 0 mm 4 mps 741 mmHg 88%
06:00 +11°C° 0 mm 4 mps 741 mmHg 83%
07:00 +12°C° 0 mm 5 mps 742 mmHg 78%
08:00 +13°C° 0 mm 5 mps 742 mmHg 71%
09:00 +15°C° 0 mm 5 mps 742 mmHg 64%
10:00 +16°C° 0 mm 5 mps 742 mmHg 57%
11:00 +17°C° 0 mm 5 mps 742 mmHg 54%
12:00 +17°C° 0 mm 5 mps 741 mmHg 52%
13:00 +19°C° 0 mm 5 mps 741 mmHg 50%
14:00 +19°C° 0 mm 5 mps 741 mmHg 52%
15:00 +19°C° 0 mm 4 mps 741 mmHg 55%
16:00 +19°C° 0 mm 3 mps 741 mmHg 57%
17:00 +17°C° 0.1 mm 4 mps 741 mmHg 64%
18:00 +14°C° 0.1 mm 4 mps 741 mmHg 70%
19:00 +12°C° 0.1 mm 5 mps 742 mmHg 77%
20:00 +12°C° 0.2 mm 4 mps 742 mmHg 79%
21:00 +12°C° 0.2 mm 2 mps 741 mmHg 82%
22:00 +12°C° 0.2 mm 1 mps 741 mmHg 84%
23:00 +11°C° 1.6 mm 1 mps 741 mmHg 88%
Show more